EW8669 Weather Reports


Display with metric or nautical units.
time (UTC)temp
F
wind
direction
speed
MPH
gust
MPH
rain 1hr
in
rain 24hr
in
rain mn
in
humidity
%
barometer
mb
20260506204549 92 184 1.0 2.0 0.00 0.00 0.00 42 1014.8
20260506204020 92 0 0.0 2.0 0.00 0.00 0.00 43 1014.7
20260506203520 92 0 0.0 2.0 0.00 0.00 0.00 42 1014.8
20260506203042 91 0 0.0 2.0 0.00 0.00 0.00 45 1014.9
20260506202523 90 184 0.0 2.0 0.00 0.00 0.00 44 1014.9
20260506202021 90 0 0.0 7.0 0.00 0.00 0.00 45 1015.0
20260506201542 89 178 1.0 8.0 0.00 0.00 0.00 45 1014.8
20260506201021 89 180 5.0 8.0 0.00 0.00 0.00 46 1014.9
20260506200524 89 154 3.0 8.0 0.00 0.00 0.00 48 1014.8
20260506200041 89 213 5.0 8.0 0.00 0.00 0.00 45 1014.9
20260506195521 90 233 3.0 8.0 0.00 0.00 0.00 45 1015.0
20260506195021 90 233 4.0 8.0 0.00 0.00 0.00 45 1014.9
20260506194537 91 204 4.0 7.0 0.00 0.00 0.00 45 1014.9
20260506194020 90 0 1.0 4.0 0.00 0.00 0.00 46 1015.1
20260506193520 91 221 2.0 4.0 0.00 0.00 0.00 45 1015.1
20260506193044 90 0 0.0 4.0 0.00 0.00 0.00 45 1015.2
20260506192524 89 130 1.0 8.0 0.00 0.00 0.00 46 1015.2
20260506192021 89 130 3.0 8.0 0.00 0.00 0.00 45 1015.3
20260506191542 89 117 2.0 4.0 0.00 0.00 0.00 46 1015.3
20260506191021 90 297 1.0 4.0 0.00 0.00 0.00 47 1015.4
20260506190521 89 223 1.0 4.0 0.00 0.00 0.00 47 1015.6
20260506190041 89 221 2.0 4.0 0.00 0.00 0.00 46 1015.6
20260506185520 89 0 0.0 5.0 0.00 0.00 0.00 46 1015.8
20260506185020 89 118 3.0 5.0 0.00 0.00 0.00 48 1015.8
20260506184539 89 241 2.0 5.0 0.00 0.00 0.00 48 1015.9
20260506184023 88 215 2.0 5.0 0.00 0.00 0.00 47 1015.9
20260506183522 88 198 2.0 5.0 0.00 0.00 0.00 47 1016.0
20260506183045 88 196 2.0 5.0 0.00 0.00 0.00 50 1015.9
20260506182520 88 225 3.0 5.0 0.00 0.00 0.00 49 1015.9
20260506182022 88 228 3.0 5.0 0.00 0.00 0.00 48 1016.0
20260506181541 88 246 1.0 4.0 0.00 0.00 0.00 48 1016.0
20260506181020 88 222 1.0 6.0 0.00 0.00 0.00 49 1016.0
20260506180521 87 223 2.0 6.0 0.00 0.00 0.00 48 1016.0
20260506180048 87 0 0.0 5.0 0.00 0.00 0.00 50 1016.2
20260506175520 87 0 2.0 5.0 0.00 0.00 0.00 50 1016.2
20260506175023 87 225 1.0 5.0 0.00 0.00 0.00 50 1016.4
20260506174544 87 226 1.0 6.0 0.00 0.00 0.00 51 1016.6
20260506174020 86 0 1.0 6.0 0.00 0.00 0.00 51 1016.5
20260506173522 86 228 3.0 6.0 0.00 0.00 0.00 51 1016.7
20260506173040 87 209 2.0 4.0 0.00 0.00 0.00 51 1016.7
20260506172521 87 182 0.0 5.0 0.00 0.00 0.00 53 1016.7
20260506172021 86 142 2.0 5.0 0.00 0.00 0.00 54 1016.7
20260506171547 85 212 2.0 4.0 0.00 0.00 0.00 55 1016.7
20260506171022 85 232 0.0 4.0 0.00 0.00 0.00 56 1016.7
20260506170520 84 0 2.0 4.0 0.00 0.00 0.00 56 1016.8
20260506170056 84 261 1.0 5.0 0.00 0.00 0.00 56 1016.8
20260506165521 84 223 3.0 5.0 0.00 0.00 0.00 57 1016.9
20260506165022 84 211 2.0 6.0 0.00 0.00 0.00 58 1017.0
20260506164541 84 218 3.0 6.0 0.00 0.00 0.00 57 1017.0
20260506164022 83 219 3.0 7.0 0.00 0.00 0.00 57 1017.1
20260506163521 83 209 4.0 7.0 0.00 0.00 0.00 58 1017.1
20260506163100 83 230 3.0 7.0 0.00 0.00 0.00 60 1017.1
20260506162525 83 221 4.0 8.0 0.00 0.00 0.00 59 1017.2
20260506162022 83 186 4.0 8.0 0.00 0.00 0.00 60 1017.1
20260506161535 83 117 5.0 8.0 0.00 0.00 0.00 62 1017.1
20260506161022 83 0 0.0 0.0 0.00 0.00 0.00 60 1017.1
20260506160522 82 0 0.0 0.0 0.00 0.00 0.00 62 1017.0
20260506160034 82 0 0.0 0.0 0.00 0.00 0.00 61 1017.1
20260506155522 82 0 0.0 0.0 0.00 0.00 0.00 63 1017.1
20260506155021 82 0 0.0 0.0 0.00 0.00 0.00 61 1017.1
20260506154605 82 0 0.0 0.0 0.00 0.00 0.00 59 1017.1
20260506154026 82 0 0.0 0.0 0.00 0.00 0.00 61 1017.2
20260506153521 81 0 0.0 0.0 0.00 0.00 0.00 67 1017.2
20260506153050 81 0 0.0 0.0 0.00 0.00 0.00 61 1017.2
20260506152520 81 0 0.0 0.0 0.00 0.00 0.00 64 1017.1
20260506152023 80 0 0.0 0.0 0.00 0.00 0.00 69 1017.1
20260506151540 80 0 0.0 0.0 0.00 0.00 0.00 69 1017.2
20260506151021 80 0 0.0 0.0 0.00 0.00 0.00 70 1017.3
20260506150520 80 0 0.0 0.0 0.00 0.00 0.00 71 1017.2
20260506150040 79 0 0.0 0.0 0.00 0.00 0.00 72 1017.2
20260506145524 79 0 0.0 0.0 0.00 0.00 0.00 73 1017.3
20260506145020 79 0 0.0 0.0 0.00 0.00 0.00 74 1017.3
20260506144542 79 0 0.0 0.0 0.00 0.00 0.00 75 1017.4
20260506144020 78 0 0.0 0.0 0.00 0.00 0.00 75 1017.2
20260506143525 78 0 0.0 0.0 0.00 0.00 0.00 77 1017.2
20260506143056 78 0 0.0 0.0 0.00 0.00 0.00 79 1017.3
20260506142522 78 0 0.0 0.0 0.00 0.00 0.00 80 1017.3
20260506142020 77 0 0.0 0.0 0.00 0.00 0.00 80 1017.2
20260506141543 77 0 0.0 0.0 0.00 0.00 0.00 82 1017.2
20260506141020 77 0 0.0 0.0 0.00 0.00 0.00 82 1017.3
20260506140525 76 0 0.0 0.0 0.00 0.00 0.00 82 1017.4
20260506140041 76 0 0.0 0.0 0.00 0.00 0.00 83 1017.2
20260506135522 76 0 0.0 0.0 0.00 0.00 0.00 84 1017.2
20260506135022 75 0 0.0 0.0 0.00 0.00 0.00 85 1017.1
20260506134536 75 0 0.0 0.0 0.00 0.00 0.00 87 1017.2
20260506134022 74 0 0.0 0.0 0.00 0.00 0.00 89 1017.2
20260506133520 74 0 0.0 0.0 0.00 0.00 0.00 89 1017.2
20260506133037 74 0 0.0 0.0 0.00 0.00 0.00 90 1017.1
20260506132521 73 0 0.0 0.0 0.00 0.00 0.00 91 1017.2
20260506132025 73 0 0.0 0.0 0.00 0.00 0.00 92 1017.1
20260506131542 72 0 0.0 0.0 0.00 0.00 0.00 93 1017.0
20260506131023 71 0 0.0 0.0 0.00 0.00 0.00 94 1017.0
20260506130521 71 0 0.0 3.0 0.00 0.00 0.00 94 1016.8
20260506130040 71 0 0.0 5.0 0.00 0.00 0.00 95 1016.9
20260506125523 70 157 0.0 5.0 0.00 0.00 0.00 95 1017.0
20260506125023 70 157 2.0 5.0 0.00 0.00 0.00 95 1016.7
20260506124540 69 162 1.0 4.0 0.00 0.00 0.00 96 1016.7
20260506124020 69 0 2.0 4.0 0.00 0.00 0.00 95 1016.5
20260506123523 69 139 0.0 2.0 0.00 0.00 0.00 96 1016.6
20260506123040 68 194 1.0 2.0 0.00 0.00 0.00 96 1016.6
20260506122523 68 0 0.0 2.0 0.00 0.00 0.00 96 1016.5
20260506122021 67 0 0.0 0.0 0.00 0.00 0.00 96 1016.4
20260506121541 67 0 0.0 0.0 0.00 0.00 0.00 96 1016.6
20260506121021 67 0 0.0 0.0 0.00 0.00 0.00 96 1016.7
20260506120523 67 0 0.0 0.0 0.00 0.00 0.00 96 1016.6
20260506120052 66 0 0.0 0.0 0.00 0.00 0.00 96 1016.5
20260506115520 66 0 0.0 0.0 0.00 0.00 0.00 96 1016.6
20260506115021 65 0 0.0 0.0 0.00 0.00 0.00 95 1016.5
20260506114547 65 0 0.0 0.0 0.00 0.00 0.00 96 1016.5
20260506114021 65 0 0.0 0.0 0.00 0.00 0.00 96 1016.4
20260506113520 65 0 0.0 0.0 0.00 0.00 0.00 95 1016.4
20260506113040 65 0 0.0 1.0 0.00 0.00 0.00 95 1016.3
20260506112526 64 0 0.0 2.0 0.00 0.00 0.00 95 1016.3
20260506112023 64 0 0.0 2.0 0.00 0.00 0.00 95 1016.3
20260506111539 64 109 0.0 2.0 0.00 0.00 0.00 95 1016.3
20260506111022 64 0 0.0 3.0 0.00 0.00 0.00 95 1016.2
20260506110525 64 0 0.0 3.0 0.00 0.00 0.00 95 1016.2
20260506110036 64 86 1.0 3.0 0.00 0.00 0.00 95 1016.1
20260506105522 63 0 0.0 2.0 0.00 0.00 0.00 95 1016.1
20260506105021 63 0 0.0 1.0 0.00 0.00 0.00 95 1016.1
20260506104543 63 0 0.0 2.0 0.00 0.00 0.00 94 1016.0
20260506104020 63 0 0.0 3.0 0.00 0.00 0.00 94 1015.9
20260506103522 63 0 1.0 3.0 0.00 0.00 0.00 94 1015.8
20260506103040 63 86 2.0 3.0 0.00 0.00 0.00 94 1015.7
20260506102522 63 0 0.0 0.0 0.00 0.00 0.00 94 1015.8
20260506102021 63 0 0.0 0.0 0.00 0.00 0.00 94 1015.9
20260506101542 63 0 0.0 0.0 0.00 0.00 0.00 94 1015.9
20260506101020 63 0 0.0 0.0 0.00 0.00 0.00 94 1015.9
20260506100520 63 0 0.0 0.0 0.00 0.00 0.00 94 1015.9
20260506100045 63 0 0.0 0.0 0.00 0.00 0.00 94 1015.8
20260506095522 63 0 0.0 0.0 0.00 0.00 0.00 94 1015.7
20260506095023 63 0 0.0 0.0 0.00 0.00 0.00 94 1015.6
20260506094548 63 0 0.0 0.0 0.00 0.00 0.00 94 1015.6
20260506094019 63 0 0.0 0.0 0.00 0.00 0.00 93 1015.6
20260506093520 63 0 0.0 0.0 0.00 0.00 0.00 93 1015.6
20260506093049 63 0 0.0 0.0 0.00 0.00 0.00 93 1015.5
20260506092522 63 0 0.0 0.0 0.00 0.00 0.00 93 1015.5
20260506092021 63 0 0.0 0.0 0.00 0.00 0.00 93 1015.5
20260506091542 63 0 0.0 0.0 0.00 0.00 0.00 93 1015.6
20260506091020 63 0 0.0 0.0 0.00 0.00 0.00 93 1015.4
20260506090521 63 0 0.0 0.0 0.00 0.00 0.00 93 1015.3
20260506090042 63 0 0.0 0.0 0.00 0.00 0.00 93 1015.4
20260506085520 63 0 0.0 0.0 0.00 0.00 0.00 93 1015.3
20260506085020 63 0 0.0 0.0 0.00 0.00 0.00 93 1015.3
20260506084541 63 0 0.0 0.0 0.00 0.00 0.00 92 1015.2
20260506084020 63 0 0.0 0.0 0.00 0.00 0.00 92 1015.3
20260506083520 63 0 0.0 0.0 0.00 0.00 0.00 92 1015.4
20260506083041 63 0 0.0 0.0 0.00 0.00 0.00 92 1015.4
20260506082520 63 0 0.0 0.0 0.00 0.00 0.00 92 1015.4
20260506082020 63 0 0.0 0.0 0.00 0.00 0.00 92 1015.5
20260506081538 63 0 0.0 0.0 0.00 0.00 0.00 92 1015.5
20260506081020 63 0 0.0 0.0 0.00 0.00 0.00 92 1015.5
20260506080521 63 0 0.0 0.0 0.00 0.00 0.00 92 1015.4
20260506073524 63 0 0.0 0.0 0.00 0.00 0.00 91 1015.4
20260506073045 64 0 0.0 0.0 0.00 0.00 0.00 91 1015.4
20260506072520 64 0 0.0 0.0 0.00 0.00 0.00 91 1015.4
20260506072021 64 0 0.0 0.0 0.00 0.00 0.00 91 1015.4
20260506071540 64 0 0.0 0.0 0.00 0.00 0.00 91 1015.5
20260506071022 64 0 0.0 0.0 0.00 0.00 0.00 90 1015.4
20260506070520 64 0 0.0 0.0 0.00 0.00 0.00 90 1015.4
20260506062019 64 0 0.0 0.0 0.00 0.00 0.00 89 1015.9
20260506061541 64 0 0.0 0.0 0.00 0.00 0.00 89 1016.1
20260506061022 65 0 0.0 0.0 0.00 0.00 0.00 89 1016.1
20260506060520 65 0 0.0 0.0 0.00 0.00 0.00 89 1016.1
20260506051021 66 0 0.0 0.0 0.00 0.00 0.00 86 1016.4
20260506050523 66 0 0.0 0.0 0.00 0.00 0.00 85 1016.4
20260506045021 67 0 0.0 0.0 0.00 0.00 0.00 85 1016.5
20260506044545 67 0 0.0 0.0 0.00 0.00 0.00 85 1016.4
20260506044021 67 0 0.0 0.0 0.00 0.00 0.00 85 1016.5
20260506043520 67 0 0.0 0.0 0.00 0.00 0.00 85 1016.4
20260506043036 67 0 0.0 0.0 0.00 0.00 0.00 84 1016.4
20260506042521 67 0 0.0 1.0 0.00 0.00 0.00 85 1016.5
20260506042023 67 0 0.0 1.0 0.00 0.00 0.00 85 1016.3
20260506041535 67 0 0.0 1.0 0.00 0.00 0.00 85 1016.4
20260506041021 67 85 0.0 1.0 0.00 0.00 0.00 84 1016.3
20260506040520 67 0 0.0 2.0 0.00 0.00 0.00 84 1016.3
20260506040058 68 0 0.0 2.0 0.00 0.00 0.00 84 1016.3
20260506035522 68 0 0.0 3.0 0.00 0.00 0.00 84 1016.4
20260506035019 68 0 0.0 3.0 0.00 0.00 0.00 84 1016.3
20260506034543 68 85 0.0 3.0 0.00 0.00 0.00 84 1016.3
20260506034022 68 0 1.0 3.0 0.00 0.00 0.00 84 1016.3
20260506033520 68 85 1.0 4.0 0.00 0.00 0.00 84 1016.3
20260506033042 68 0 1.0 4.0 0.00 0.00 0.00 84 1016.2
20260506032520 68 73 1.0 3.0 0.00 0.00 0.00 84 1016.3
20260506032020 68 73 1.0 3.0 0.00 0.00 0.00 83 1016.4
20260506031553 67 0 0.0 2.0 0.00 0.00 0.00 82 1016.4
20260506031022 67 0 0.0 2.0 0.00 0.00 0.00 82 1016.3
20260506030522 68 72 1.0 2.0 0.00 0.00 0.00 82 1016.2
20260506030034 68 0 0.0 2.0 0.00 0.00 0.00 81 1016.3
20260506025520 68 72 0.0 3.0 0.00 0.00 0.00 81 1016.2
20260506025021 68 72 1.0 3.0 0.00 0.00 0.00 81 1016.2
20260506024540 68 72 1.0 3.0 0.00 0.00 0.00 81 1016.1
20260506024021 68 72 0.0 3.0 0.00 0.00 0.00 80 1016.2
20260506023520 68 72 1.0 3.0 0.00 0.00 0.00 80 1016.3
20260506023041 68 72 0.0 2.0 0.00 0.00 0.00 79 1016.2
20260506022520 69 72 0.0 2.0 0.00 0.00 0.00 79 1016.2
20260506022020 69 72 0.0 3.0 0.00 0.00 0.00 79 1016.1
20260506021536 69 0 0.0 3.0 0.00 0.00 0.00 79 1016.0
20260506021022 69 72 0.0 3.0 0.00 0.00 0.00 78 1016.0
20260506020520 69 0 0.0 2.0 0.00 0.00 0.00 78 1016.0
20260506020041 69 0 0.0 3.0 0.00 0.00 0.00 77 1016.0
20260506015521 70 0 1.0 3.0 0.00 0.00 0.00 77 1015.9
20260506015021 70 72 1.0 3.0 0.00 0.00 0.00 77 1015.9
20260506014541 70 72 0.0 3.0 0.00 0.00 0.00 76 1015.8
20260506014020 70 72 1.0 3.0 0.00 0.00 0.00 75 1015.9
20260506013520 70 71 1.0 3.0 0.00 0.00 0.00 75 1015.9
20260506013044 71 71 1.0 3.0 0.00 0.00 0.00 75 1015.8
20260506012520 71 71 1.0 3.0 0.00 0.00 0.00 75 1015.8
20260506012022 71 0 0.0 3.0 0.00 0.00 0.00 75 1015.7
20260506011538 71 71 1.0 3.0 0.00 0.00 0.00 74 1015.7
20260506011020 72 0 0.0 3.0 0.00 0.00 0.00 74 1015.6
20260506010522 72 73 1.0 5.0 0.00 0.00 0.00 74 1015.6
20260506010041 72 73 2.0 7.0 0.00 0.00 0.00 74 1015.4
20260506005520 73 74 3.0 7.0 0.00 0.00 0.00 74 1015.3
20260506005020 73 71 3.0 6.0 0.00 0.00 0.00 74 1015.4
20260506004541 73 84 3.0 7.0 0.00 0.00 0.00 74 1015.3
20260506004027 73 93 3.0 7.0 0.00 0.00 0.00 74 1015.2
20260506003524 74 80 3.0 6.0 0.00 0.00 0.00 72 1015.2
20260506003042 74 88 3.0 6.0 0.00 0.00 0.00 72 1015.3
20260506002521 74 82 3.0 6.0 0.00 0.00 0.00 72 1015.2
20260506002023 74 91 3.0 6.0 0.00 0.00 0.00 71 1015.3
20260506001537 75 132 4.0 7.0 0.00 0.00 0.00 70 1015.2
20260506001023 75 98 4.0 8.0 0.00 0.00 0.00 69 1015.1
20260506000521 75 112 5.0 9.0 0.00 0.00 0.00 69 1015.1
20260506000039 75 114 6.0 9.0 0.00 0.00 0.00 68 1015.2
20260505235521 76 67 6.0 12.0 0.00 0.00 0.00 68 1015.1
20260505235022 76 101 6.0 12.0 0.00 0.00 0.00 67 1015.0
20260505234553 76 109 7.0 11.0 0.00 0.00 0.00 67 1015.0
20260505234023 76 109 8.0 12.0 0.00 0.00 0.00 65 1014.9
20260505233523 76 107 9.0 12.0 0.00 0.00 0.00 65 1014.9
20260505233042 76 107 9.0 13.0 0.00 0.00 0.00 64 1014.9
20260505232523 77 74 9.0 15.0 0.00 0.00 0.00 64 1014.9
20260505232022 77 91 9.0 15.0 0.00 0.00 0.00 65 1014.9
20260505231547 77 103 9.0 14.0 0.00 0.00 0.00 64 1014.8
20260505231021 77 89 9.0 13.0 0.00 0.00 0.00 66 1014.9
20260505230521 77 84 9.0 16.0 0.00 0.00 0.00 65 1014.9
20260505230040 77 105 10.0 16.0 0.00 0.00 0.00 64 1014.8
20260505225527 78 96 6.0 10.0 0.00 0.00 0.00 65 1014.9
20260505225023 78 0 0.0 0.0 0.00 0.00 0.00 62 1014.9
20260505224543 78 0 0.0 0.0 0.00 0.00 0.00 63 1014.9
20260505224021 78 0 0.0 0.0 0.00 0.00 0.00 60 1014.9
20260505223525 78 0 0.0 0.0 0.00 0.00 0.00 59 1015.0
20260505223050 78 0 0.0 0.0 0.00 0.00 0.00 60 1014.9
20260505222525 78 0 0.0 0.0 0.00 0.00 0.00 60 1014.9
20260505222023 78 0 0.0 0.0 0.00 0.00 0.00 59 1015.0
20260505221541 78 0 0.0 0.0 0.00 0.00 0.00 59 1015.1
20260505221024 78 0 0.0 0.0 0.00 0.00 0.00 58 1015.0
20260505220523 78 0 0.0 0.0 0.00 0.00 0.00 59 1015.1
20260505220041 79 0 0.0 0.0 0.00 0.00 0.00 59 1015.1
20260505215521 79 0 0.0 0.0 0.00 0.00 0.00 63 1015.1
20260505215023 79 0 0.0 0.0 0.00 0.00 0.00 61 1015.1
20260505214550 79 0 0.0 15.0 0.00 0.00 0.00 60 1014.9
20260505214024 79 0 4.0 15.0 0.00 0.00 0.00 59 1014.8
20260505213523 79 116 12.0 15.0 0.00 0.00 0.00 63 1014.8
20260505213043 79 120 8.0 14.0 0.00 0.00 0.00 61 1014.9
20260505212523 79 0 0.0 0.0 0.00 0.00 0.00 61 1014.9
20260505212024 79 0 0.0 0.0 0.00 0.00 0.00 62 1014.8
20260505211541 79 0 0.0 0.0 0.00 0.00 0.00 62 1014.9
20260505211021 80 0 0.0 0.0 0.00 0.00 0.00 63 1014.7
20260505210523 79 0 0.0 0.0 0.00 0.00 0.00 60 1014.7
20260505210042 79 0 0.0 0.0 0.00 0.00 0.00 60 1014.7
20260505205525 79 0 0.0 0.0 0.00 0.00 0.00 60 1014.6
20260505205022 79 0 0.0 0.0 0.00 0.00 0.00 62 1014.6